DW8485 Weather Reports


Display with metric or nautical units.
time (UTC)temp
F
wind
direction
speed
MPH
gust
MPH
rain 1hr
in
rain 24hr
in
rain mn
in
humidity
%
barometer
mb
20190624161118 89 166 3.0 7.0 0.00 0.00 0.00 66 1014.6
20190624160619 88 203 2.0 8.0 0.00 0.00 0.00 67 1014.8
20190624160118 88 261 1.0 8.0 0.00 0.00 0.00 69 1014.7
20190624155618 87 224 1.0 5.0 0.00 0.00 0.00 66 1014.8
20190624155118 87 101 2.0 4.0 0.00 0.00 0.00 67 1014.8
20190624154618 86 328 1.0 7.0 0.00 0.00 0.00 68 1014.8
20190624154119 86 188 1.0 7.0 0.00 0.00 0.00 67 1014.8
20190624153618 85 281 1.0 5.0 0.00 0.00 0.00 66 1014.9
20190624153118 85 234 1.0 5.0 0.00 0.00 0.00 68 1014.9
20190624152618 85 307 3.0 7.0 0.00 0.00 0.00 68 1015.0
20190624152119 85 264 1.0 7.0 0.00 0.00 0.00 68 1015.0
20190624151619 85 215 4.0 11.0 0.00 0.00 0.00 68 1015.1
20190624151118 85 196 3.0 11.0 0.00 0.00 0.00 66 1015.0
20190624150618 84 162 3.0 10.0 0.00 0.00 0.00 66 1015.1
20190624150119 84 259 2.0 9.0 0.00 0.00 0.00 67 1015.1
20190624145618 84 321 2.0 7.0 0.00 0.00 0.00 68 1015.1
20190624145119 84 226 3.0 7.0 0.00 0.00 0.00 69 1015.0
20190624144618 83 223 0.0 4.0 0.00 0.00 0.00 69 1015.0
20190624144119 83 317 2.0 5.0 0.00 0.00 0.00 70 1015.0
20190624143619 83 325 2.0 7.0 0.00 0.00 0.00 70 1015.0
20190624143118 82 297 2.0 8.0 0.00 0.00 0.00 71 1014.9
20190624142618 82 168 1.0 8.0 0.00 0.00 0.00 72 1015.0
20190624142118 81 170 2.0 9.0 0.00 0.00 0.00 73 1015.0
20190624141619 81 213 2.0 9.0 0.00 0.00 0.00 74 1015.0
20190624141118 81 186 3.0 7.0 0.00 0.00 0.00 77 1014.9
20190624140619 80 207 6.0 7.0 0.00 0.00 0.00 78 1014.9
20190624140119 80 181 6.0 7.0 0.00 0.00 0.00 79 1014.9
20190624135618 80 227 2.0 5.0 0.00 0.00 0.00 80 1014.9
20190624135119 79 355 3.0 5.0 0.00 0.00 0.00 82 1014.9
20190624134619 79 167 3.0 7.0 0.00 0.00 0.00 82 1014.9
20190624134118 78 254 1.0 7.0 0.00 0.00 0.00 82 1014.9
20190624133618 78 224 2.0 7.0 0.00 0.00 0.00 84 1014.9
20190624133119 77 202 2.0 7.0 0.00 0.00 0.00 84 1014.8
20190624132618 77 217 1.0 4.0 0.00 0.00 0.00 85 1014.8
20190624132118 77 209 2.0 4.0 0.00 0.00 0.00 86 1014.7
20190624131618 76 207 2.0 4.0 0.00 0.00 0.00 86 1014.8
20190624131118 76 288 1.0 3.0 0.00 0.00 0.00 86 1014.7
20190624130618 76 290 0.0 3.0 0.00 0.00 0.00 86 1014.7
20190624130119 75 178 0.0 3.0 0.00 0.00 0.00 86 1014.8
20190624125618 75 177 1.0 4.0 0.00 0.00 0.00 86 1014.8
20190624125118 74 170 1.0 4.0 0.00 0.00 0.00 86 1014.9
20190624124618 74 302 1.0 4.0 0.00 0.00 0.00 86 1014.9
20190624124119 74 305 0.0 3.0 0.00 0.00 0.00 85 1015.0
20190624123619 74 315 1.0 4.0 0.00 0.00 0.00 85 1014.9
20190624123119 73 355 1.0 4.0 0.00 0.00 0.00 85 1014.9
20190624122619 73 22 0.0 3.0 0.00 0.00 0.00 85 1014.9
20190624122119 73 27 1.0 3.0 0.00 0.00 0.00 85 1014.8
20190624121618 73 26 1.0 3.0 0.00 0.00 0.00 85 1014.8
20190624121119 73 27 0.0 3.0 0.00 0.00 0.00 85 1014.8
20190624120618 73 27 0.0 3.0 0.00 0.00 0.00 85 1014.8
20190624120119 73 28 2.0 3.0 0.00 0.00 0.00 85 1014.8
20190624115618 73 27 0.0 2.0 0.00 0.00 0.00 85 1014.8
20190624115118 73 27 0.0 2.0 0.00 0.00 0.00 85 1014.9
20190624114619 72 28 0.0 2.0 0.00 0.00 0.00 85 1014.9
20190624114118 72 27 0.0 3.0 0.00 0.00 0.00 85 1014.8
20190624113619 72 27 0.0 3.0 0.00 0.00 0.00 85 1014.8
20190624113118 72 27 0.0 3.0 0.00 0.00 0.00 85 1014.7
20190624112619 72 27 1.0 3.0 0.00 0.00 0.00 85 1014.8
20190624112118 72 28 1.0 2.0 0.00 0.00 0.00 85 1014.7
20190624111619 72 28 0.0 3.0 0.00 0.00 0.00 86 1014.6
20190624111118 72 27 0.0 3.0 0.00 0.00 0.00 86 1014.5
20190624110619 72 29 0.0 2.0 0.00 0.00 0.00 86 1014.4
20190624110119 72 29 0.0 2.0 0.00 0.00 0.00 86 1014.4
20190624105619 72 29 0.0 2.0 0.00 0.00 0.00 86 1014.3
20190624105119 72 29 0.0 1.0 0.00 0.00 0.00 86 1014.3
20190624104618 72 29 0.0 1.0 0.00 0.00 0.00 86 1014.4
20190624104118 72 29 0.0 1.0 0.00 0.00 0.00 86 1014.3
20190624103619 72 29 0.0 1.0 0.00 0.00 0.00 86 1014.3
20190624103118 72 29 0.0 1.0 0.00 0.00 0.00 86 1014.2
20190624102618 72 29 0.0 1.0 0.00 0.00 0.00 86 1014.1
20190624102118 72 29 0.0 1.0 0.00 0.00 0.00 86 1014.1
20190624101618 72 29 0.0 1.0 0.00 0.00 0.00 86 1014.1
20190624101118 72 29 0.0 1.0 0.00 0.00 0.00 87 1014.0
20190624100619 72 29 0.0 1.0 0.00 0.00 0.00 87 1014.0
20190624100118 72 29 0.0 1.0 0.00 0.00 0.00 87 1014.0
20190624095619 72 29 0.0 1.0 0.00 0.00 0.00 87 1014.0
20190624095119 72 29 0.0 1.0 0.00 0.00 0.00 87 1014.0
20190624094619 72 29 0.0 1.0 0.00 0.00 0.00 87 1013.9
20190624094118 72 29 0.0 1.0 0.00 0.00 0.00 87 1013.8
20190624093618 72 29 0.0 1.0 0.00 0.00 0.00 87 1013.8
20190624093118 72 29 0.0 1.0 0.00 0.00 0.00 87 1013.8
20190624092618 72 29 0.0 1.0 0.00 0.00 0.00 87 1013.7
20190624092119 72 29 0.0 1.0 0.00 0.00 0.00 87 1013.7
20190624091626 72 29 0.0 1.0 0.00 0.00 0.00 87 1013.6
20190624091119 72 29 0.0 1.0 0.00 0.00 0.00 87 1013.7
20190624090619 72 29 0.0 1.0 0.00 0.00 0.00 87 1013.7
20190624090119 72 29 0.0 1.0 0.00 0.00 0.00 87 1013.6
20190624085619 72 29 0.0 1.0 0.00 0.00 0.00 87 1013.6
20190624085118 72 29 0.0 1.0 0.00 0.00 0.00 87 1013.5
20190624084619 72 29 0.0 1.0 0.00 0.00 0.00 87 1013.5
20190624084118 72 29 0.0 1.0 0.00 0.00 0.00 87 1013.6
20190624083618 72 29 0.0 1.0 0.00 0.00 0.00 87 1013.6
20190624083118 72 29 0.0 1.0 0.00 0.00 0.00 87 1013.6
20190624082618 73 29 0.0 1.0 0.00 0.00 0.00 87 1013.6
20190624082118 73 29 0.0 1.0 0.00 0.00 0.00 87 1013.5
20190624081618 73 29 0.0 1.0 0.00 0.00 0.00 87 1013.5
20190624081118 73 29 0.0 1.0 0.00 0.00 0.00 87 1013.5
20190624080619 73 29 0.0 1.0 0.00 0.00 0.00 87 1013.6
20190624080118 73 29 0.0 1.0 0.00 0.00 0.00 87 1013.5
20190624075619 73 29 0.0 1.0 0.00 0.00 0.00 87 1013.5
20190624075118 73 29 0.0 1.0 0.00 0.00 0.00 87 1013.5
20190624074619 73 29 0.0 1.0 0.00 0.00 0.00 87 1013.5
20190624074118 73 29 0.0 1.0 0.00 0.00 0.00 87 1013.5
20190624073618 73 29 0.0 1.0 0.00 0.00 0.00 87 1013.5
20190624073118 73 29 0.0 1.0 0.00 0.00 0.00 87 1013.5
20190624072618 73 29 0.0 2.0 0.00 0.00 0.00 87 1013.7
20190624072118 73 29 0.0 2.0 0.00 0.00 0.00 87 1013.8
20190624071618 73 29 0.0 1.0 0.00 0.00 0.00 87 1013.8
20190624071118 73 29 0.0 1.0 0.00 0.00 0.00 87 1013.8
20190624070618 73 29 0.0 1.0 0.00 0.00 0.00 87 1013.8
20190624070119 73 29 0.0 1.0 0.00 0.00 0.00 87 1013.9
20190624065618 73 29 0.0 1.0 0.00 0.00 0.00 87 1013.9
20190624065119 73 29 0.0 1.0 0.00 0.00 0.00 87 1013.9
20190624064618 74 29 0.0 1.0 0.00 0.00 0.00 87 1014.0
20190624064118 74 29 0.0 1.0 0.00 0.00 0.00 87 1014.0
20190624063619 74 29 0.0 1.0 0.00 0.00 0.00 87 1014.0
20190624063118 74 29 0.0 1.0 0.00 0.00 0.00 87 1014.1
20190624062619 74 29 0.0 1.0 0.00 0.00 0.00 87 1014.1
20190624062118 74 29 0.0 1.0 0.00 0.00 0.00 87 1014.2
20190624061619 74 29 0.0 1.0 0.00 0.00 0.00 87 1014.1
20190624061118 74 29 0.0 1.0 0.00 0.00 0.00 87 1014.0
20190624060618 74 29 0.0 1.0 0.00 0.00 0.00 87 1014.1
20190624060118 74 29 0.0 1.0 0.00 0.00 0.00 87 1014.1
20190624055618 74 29 0.0 1.0 0.00 0.00 0.00 87 1014.1
20190624055118 74 29 0.0 1.0 0.00 0.00 0.00 87 1014.1
20190624054618 74 29 0.0 1.0 0.00 0.00 0.00 87 1014.2
20190624054118 74 29 0.0 1.0 0.00 0.00 0.00 87 1014.3
20190624053618 75 29 0.0 1.0 0.00 0.00 0.00 87 1014.3
20190624053118 75 29 0.0 1.0 0.00 0.00 0.00 86 1014.3
20190624052618 75 29 0.0 1.0 0.00 0.00 0.00 86 1014.3
20190624052118 75 29 0.0 1.0 0.00 0.00 0.00 86 1014.4
20190624051618 75 29 0.0 1.0 0.00 0.00 0.00 86 1014.4
20190624051118 75 29 0.0 1.0 0.00 0.00 0.00 86 1014.4
20190624050618 75 29 0.0 1.0 0.00 0.00 0.00 87 1014.3
20190624050118 75 29 0.0 1.0 0.00 0.00 0.00 87 1014.4
20190624045619 75 29 0.0 1.0 0.00 0.00 0.00 87 1014.4
20190624045118 75 29 0.0 1.0 0.00 0.00 0.00 87 1014.4
20190624044618 75 29 0.0 1.0 0.00 0.00 0.00 86 1014.5
20190624044119 75 29 0.0 1.0 0.00 0.00 0.00 86 1014.5
20190624043619 75 29 0.0 1.0 0.00 0.00 0.00 86 1014.5
20190624043118 75 29 0.0 1.0 0.00 0.00 0.00 86 1014.4
20190624042618 75 29 0.0 1.0 0.00 0.00 0.00 86 1014.5
20190624042118 75 29 0.0 1.0 0.00 0.00 0.00 86 1014.6
20190624041618 75 29 0.0 1.0 0.00 0.00 0.00 86 1014.6
20190624041118 75 29 0.0 1.0 0.00 0.00 0.00 86 1014.6
20190624040618 75 29 0.0 1.0 0.00 0.00 0.00 86 1014.5
20190624040118 75 29 0.0 1.0 0.00 0.00 0.00 86 1014.5
20190624035618 76 29 0.0 1.0 0.00 0.00 0.00 86 1014.6
20190624035118 76 29 0.0 1.0 0.00 0.00 0.00 86 1014.6
20190624034619 76 29 0.0 1.0 0.00 0.00 0.00 86 1014.6
20190624034118 76 29 0.0 1.0 0.00 0.00 0.00 86 1014.6
20190624033618 76 29 0.0 1.0 0.00 0.00 0.00 85 1014.6
20190624033118 76 29 0.0 1.0 0.00 0.00 0.00 85 1014.4
20190624032618 76 29 0.0 1.0 0.00 0.00 0.00 85 1014.4
20190624032118 76 29 0.0 1.0 0.00 0.00 0.00 85 1014.4
20190624031618 76 29 0.0 1.0 0.00 0.00 0.00 85 1014.4
20190624031118 76 29 0.0 1.0 0.00 0.00 0.00 85 1014.4
20190624030618 76 29 0.0 1.0 0.00 0.00 0.00 85 1014.3
20190624030118 77 29 0.0 1.0 0.00 0.00 0.00 85 1014.4
20190624025618 77 29 0.0 1.0 0.00 0.00 0.00 85 1014.4
20190624025118 77 29 0.0 1.0 0.00 0.00 0.00 85 1014.5
20190624024618 77 29 0.0 1.0 0.00 0.00 0.00 84 1014.4
20190624024118 77 29 0.0 1.0 0.00 0.00 0.00 84 1014.4
20190624023618 77 29 0.0 1.0 0.00 0.00 0.00 84 1014.4
20190624023118 77 29 0.0 1.0 0.00 0.00 0.00 84 1014.4
20190624022619 77 29 0.0 1.0 0.00 0.00 0.00 84 1014.5
20190624022118 77 29 0.0 1.0 0.00 0.00 0.00 83 1014.6
20190624021618 78 29 0.0 1.0 0.00 0.00 0.00 83 1014.7
20190624021119 78 29 0.0 1.0 0.00 0.00 0.00 83 1014.8
20190624020618 78 29 0.0 1.0 0.00 0.00 0.00 83 1014.8
20190624020118 78 29 0.0 2.0 0.00 0.00 0.00 83 1014.8
20190624015618 78 29 0.0 2.0 0.00 0.00 0.00 83 1014.9
20190624015118 78 29 0.0 1.0 0.00 0.00 0.00 82 1014.8
20190624014619 78 29 0.0 1.0 0.00 0.00 0.00 82 1014.9
20190624014118 79 29 0.0 1.0 0.00 0.00 0.00 82 1014.8
20190624013618 79 29 0.0 1.0 0.00 0.00 0.00 82 1014.8
20190624013118 79 29 0.0 1.0 0.00 0.00 0.00 81 1014.7
20190624012618 79 29 0.0 1.0 0.00 0.00 0.00 81 1014.8
20190624012118 79 29 0.0 1.0 0.00 0.00 0.00 80 1014.8
20190624011618 80 29 0.0 2.0 0.00 0.00 0.00 80 1014.7
20190624011119 80 29 0.0 2.0 0.00 0.00 0.00 80 1014.8
20190624010618 80 29 0.0 1.0 0.00 0.00 0.00 79 1014.7
20190624010118 80 29 0.0 1.0 0.00 0.00 0.00 79 1014.7
20190624005618 81 29 0.0 1.0 0.00 0.01 0.00 79 1014.6
20190624005118 81 29 0.0 2.0 0.00 0.01 0.00 78 1014.6
20190624004618 81 29 0.0 2.0 0.00 0.01 0.00 78 1014.6
20190624004118 81 29 0.0 2.0 0.00 0.01 0.00 78 1014.6
20190624003618 82 29 0.0 1.0 0.00 0.02 0.00 77 1014.7
20190624003118 82 29 0.0 1.0 0.00 0.02 0.00 76 1014.8
20190624002618 82 29 0.0 2.0 0.00 0.02 0.00 76 1014.7
20190624002118 82 29 0.0 2.0 0.00 0.02 0.00 76 1014.9
20190624001618 83 29 0.0 1.0 0.00 0.02 0.00 75 1014.8
20190624001118 83 29 0.0 1.0 0.00 0.03 0.00 75 1014.7
20190624000618 83 29 0.0 1.0 0.00 0.03 0.00 75 1014.6
20190624000118 83 29 0.0 1.0 0.00 0.03 0.00 74 1014.7
20190623235618 84 29 0.0 2.0 0.00 0.04 0.00 74 1014.6
20190623235118 84 29 0.0 2.0 0.00 0.04 0.00 74 1014.6
20190623234618 84 29 0.0 3.0 0.00 0.04 0.00 74 1014.6
20190623234118 84 29 1.0 4.0 0.00 0.04 0.00 74 1014.5
20190623233618 84 29 0.0 4.0 0.00 0.05 0.00 73 1014.4
20190623233118 84 39 1.0 4.0 0.00 0.14 0.00 73 1014.3
20190623232618 85 11 0.0 4.0 0.00 0.42 0.00 73 1014.4
20190623232118 85 11 1.0 4.0 0.00 0.46 0.00 72 1014.3
20190623231618 85 11 1.0 4.0 0.00 0.47 0.00 72 1014.2
20190623231118 85 23 2.0 4.0 0.00 0.48 0.00 72 1014.3
20190623230618 85 22 0.0 4.0 0.00 0.48 0.00 73 1014.3
20190623230118 85 22 0.0 3.0 0.00 0.49 0.00 72 1014.1
20190623225618 85 22 0.0 3.0 0.00 0.49 0.00 71 1014.2
20190623225118 86 22 1.0 4.0 0.00 0.49 0.00 72 1014.2
20190623224618 86 22 1.0 4.0 0.00 0.49 0.00 70 1014.2
20190623224118 86 22 1.0 4.0 0.00 0.49 0.00 70 1014.2
20190623223618 86 23 3.0 4.0 0.00 0.49 0.00 70 1014.3
20190623223118 86 33 0.0 3.0 0.00 0.49 0.00 71 1014.2
20190623222618 86 33 2.0 3.0 0.00 0.49 0.00 70 1014.1
20190623222119 86 33 2.0 5.0 0.00 0.49 0.00 71 1014.1
20190623221619 86 33 2.0 5.0 0.00 0.49 0.00 70 1014.1
20190623221118 86 5 1.0 4.0 0.00 0.49 0.00 71 1014.1
20190623220618 86 5 1.0 5.0 0.00 0.49 0.00 70 1014.0
20190623220118 86 5 0.0 5.0 0.00 0.49 0.00 70 1014.1
20190623215618 86 21 3.0 5.0 0.00 0.49 0.00 69 1014.2
20190623215118 87 11 2.0 8.0 0.00 0.49 0.00 69 1014.2
20190623214618 87 287 3.0 8.0 0.00 0.49 0.00 68 1014.3
20190623214118 87 321 2.0 5.0 0.00 0.49 0.00 68 1014.4
20190623213618 87 349 0.0 7.0 0.00 0.49 0.00 68 1014.3
20190623213118 88 31 2.0 8.0 0.00 0.49 0.00 67 1014.2
20190623212618 88 16 3.0 8.0 0.00 0.49 0.00 68 1014.3
20190623212118 88 13 1.0 7.0 0.00 0.49 0.00 67 1014.4
20190623211618 88 27 2.0 7.0 0.00 0.49 0.00 68 1014.3
20190623211118 88 14 4.0 7.0 0.00 0.49 0.00 67 1014.4
20190623210618 88 342 0.0 7.0 0.00 0.49 0.00 69 1014.4
20190623210118 88 321 1.0 11.0 0.00 0.49 0.00 68 1014.4
20190623205618 88 293 3.0 11.0 0.00 0.49 0.00 68 1014.5
20190623205118 88 22 4.0 11.0 0.00 0.49 0.00 68 1014.5
20190623204618 88 5 3.0 11.0 0.00 0.49 0.00 66 1014.5
20190623204118 88 10 3.0 10.0 0.00 0.49 0.00 67 1014.5
20190623203618 89 5 6.0 10.0 0.00 0.49 0.00 66 1014.5
20190623203118 89 22 3.0 8.0 0.00 0.49 0.00 66 1014.7
20190623202618 89 25 6.0 8.0 0.00 0.49 0.00 65 1014.6
20190623202118 89 5 2.0 8.0 0.00 0.49 0.00 66 1014.5
20190623201618 89 44 1.0 4.0 0.00 0.49 0.00 66 1014.5
20190623201118 89 335 1.0 7.0 0.00 0.49 0.00 64 1014.5
20190623200618 89 329 2.0 7.0 0.00 0.49 0.00 64 1014.5
20190623200118 89 360 3.0 7.0 0.00 0.49 0.00 65 1014.5
20190623195618 89 214 1.0 7.0 0.00 0.49 0.00 63 1014.6
20190623195118 89 296 3.0 7.0 0.00 0.49 0.00 65 1014.7
20190623194618 89 19 0.0 5.0 0.00 0.49 0.00 63 1014.7
20190623194118 89 29 0.0 7.0 0.00 0.49 0.00 65 1014.7
20190623193618 89 26 1.0 7.0 0.00 0.49 0.00 66 1014.8
20190623193118 89 300 2.0 5.0 0.00 0.49 0.00 64 1014.8
20190623192618 89 295 1.0 5.0 0.00 0.49 0.00 63 1014.9
20190623192129 89 355 2.0 8.0 0.00 0.49 0.00 63 1015.0
20190623191629 89 360 2.0 8.0 0.00 0.49 0.00 61 1015.0
20190623191129 89 308 1.0 5.0 0.00 0.49 0.00 64 1015.1
20190623190630 89 277 0.0 5.0 0.00 0.49 0.00 61 1015.1
20190623190129 89 238 2.0 4.0 0.00 0.49 0.00 61 1015.1
20190623185629 89 331 1.0 5.0 0.00 0.49 0.00 66 1015.1
20190623185129 89 331 1.0 5.0 0.00 0.49 0.00 63 1015.1
20190623184629 89 214 3.0 4.0 0.00 0.49 0.00 62 1015.2
20190623184129 90 221 2.0 8.0 0.00 0.49 0.00 60 1015.2
20190623183629 90 194 2.0 8.0 0.00 0.49 0.00 58 1015.3
20190623183129 90 207 2.0 8.0 0.00 0.49 0.00 59 1015.3
20190623182629 90 230 4.0 8.0 0.00 0.49 0.00 58 1015.4
20190623182129 90 143 2.0 5.0 0.00 0.49 0.00 60 1015.4
20190623181629 90 157 1.0 5.0 0.00 0.49 0.00 61 1015.5
20190623181129 90 313 2.0 8.0 0.00 0.49 0.00 61 1015.5
20190623180629 90 9 1.0 9.0 0.00 0.49 0.00 61 1015.6
20190623180129 89 302 2.0 9.0 0.00 0.49 0.00 61 1015.7
20190623175629 89 219 8.0 9.0 0.00 0.49 0.00 62 1015.8
20190623175129 89 320 0.0 5.0 0.00 0.49 0.00 62 1015.9
20190623174629 89 311 2.0 4.0 0.00 0.49 0.00 63 1015.9
20190623174129 89 225 1.0 5.0 0.00 0.49 0.00 63 1015.9
20190623173629 89 9 0.0 5.0 0.00 0.49 0.00 62 1015.9
20190623173129 89 355 2.0 5.0 0.00 0.49 0.00 62 1016.0
20190623172629 88 304 2.0 7.0 0.00 0.49 0.00 64 1016.0
20190623172129 88 189 3.0 7.0 0.00 0.49 0.00 62 1016.0
20190623171629 88 355 1.0 7.0 0.00 0.49 0.00 63 1015.9
20190623171130 87 284 1.0 7.0 0.00 0.49 0.00 63 1016.1
20190623170629 87 335 2.0 5.0 0.00 0.49 0.00 63 1016.1
20190623170129 87 281 2.0 5.0 0.00 0.49 0.00 63 1016.2
20190623165629 86 338 3.0 8.0 0.00 0.49 0.00 67 1016.2
20190623165129 86 306 0.0 8.0 0.00 0.49 0.00 70 1016.1
20190623164629 85 293 2.0 5.0 0.00 0.49 0.00 66 1016.1
20190623164129 85 233 0.0 5.0 0.00 0.49 0.00 68 1016.2
20190623163629 85 198 1.0 5.0 0.00 0.49 0.00 67 1016.1
20190623163129 84 298 1.0 4.0 0.00 0.49 0.00 71 1016.3
20190623162629 84 172 2.0 4.0 0.00 0.49 0.00 69 1016.3
20190623162129 84 105 3.0 4.0 0.00 0.49 0.00 70 1016.4
20190623161629 83 13 2.0 5.0 0.00 0.49 0.00 71 1016.5